Showing default

MIDAS 7/ERS 10, 622

Orbit data source: Space-Track

MIDAS 7/ERS 10, 622 is a payload satellite owned by USAF SSD (US) in LEO that was launched on Fri, 19 Jul 1963 UTC via an ATLAS AGENA B launch vehicle from the Air Force Western Test Range (AFWTR). Payload-class satellites include a variety of spacecraft equipped with specific instruments for various scientific and technological missions. These include communications satellites like Starlink; space stations such as the ISS; scientific satellites like the Hubble; Earth observation satellites from companies like Planet Labs, Umbra, and HawkEye 360; GPS; miniature CubeSats for education and research; and military/defense satellites.

Loading next visibility...
Identifier
622, 1963-030A
Orbit
LEO
Country
Flag of USUS
Related business
Manufacturer
LMSC
Mission
Spacecraft
Bus & Motor
MIDAS, Unknown motor
Mass
~1,540 kg wet, ~840 kg dry
Launch date (UTC)
1963-07-19 (63 years ago)
Launch vehicle
ATLAS AGENA B
Launch site
Air Force Western Test Range (AFWTR)
Object type
Payload
Rocket body
Debris
Shape & HBR
Unknown
Radar Cross Section
Large (>1 m²)

Expand to show TLE details & history
Last TLE update: 1 day ago

TLE from 1 day ago
0 MIDAS 7/ERS 10
1 00622U 63030A   26036.95273752 -.00000022  00000-0 -12489-1 0  9990
2 00622  88.4295 218.5060 0030692 190.6674 169.3527  8.57932667448522
Epoch: 2026-02-05T22:51Z
TLE epoch observation values (Epoch: 2026-02-05T22:51:56.521Z)
Latitude
-0.00007°
Longitude
99.42291°
Altitude
3,733.815 km
Speed
6.27 km/s
True Right ascension
14h 34m 01s
True Declination
0° 00' 00"
Sunlit
Object was in daylight at epoch
Visualization orbit readout
Latitude
Unknown
Longitude
Unknown
Altitude
Unknown
Speed
Unknown
Apparent Right ascension
Unknown
Apparent Declination
Unknown
Sunlit
N/A
Visualization observer readout
Local Sidereal Time
03:09:17
Azimuth
Unknown
Elevation
Unknown
Doppler factor
Unknown
Orbital elements
Apogee altitude
3,729.98 km
Perigee altitude
3,668.123 km
Semi-major axis
10,077.189 km
Eccentricity
0.00307
Inclination
88.4295°
RAAN
218.506°
Arg. of periapsis
190.6674°
True anomaly
169.41744°
Mean anomaly
169.3527°
Eccentric anomaly
169.38509°
Mean motion
2.14553 °/min
Orbital period
167.79 mins
BSTAR
-0.012489
Loading maneuver chart data...
Computing Atmospheric mass density...
Loading historical data...
Loading historical data...
Loading historical data...
Loading historical data...
Loading historical data...
Loading historical data...
Loading historical data...

Documentation

Showing up to 5 results
|